Regional Weather Roundup
Issued by NWS

Home | Current Version | Previous Version | Graphics & Text | Print | Product List | Glossary On
Versions: 1 2 3 4 5 6 7 8 9 10 11 12 13 14 15 16 17 18 19 20 21 22 23 24 25 26 27 28 29 30 31 32 33 34 35 36 37 38 39 40 41 42 43 44 45 46 47 48 49 50
653
ASUS43 KLOT 020903
RWRIL

ILLINOIS REGIONAL WEATHER ROUNDUP
NATIONAL WEATHER SERVICE CHICAGO/ROMEOVILLE IL
400 AM CDT MON MAY 02 2016

NOTE: "FAIR" INDICATES FEW OR NO CLOUDS BELOW 12,000 FEET WITH NO
SIGNIFICANT WEATHER AND/OR OBSTRUCTIONS TO VISIBILITY.

* THESE STATIONS ARE NOT UNDER NWS QUALITY CONTROL. THEY ALSO MAY NOT
  REPORT WEATHER SUCH AS PRECIPITATION OR FOG.

ILZ001-002-007-009-015-016-024-021000-
NORTHWEST ILLINOIS

CITY           SKY/WX    TMP DP  RH WIND       PRES   REMARKS
MOLINE         CLOUDY    49  45  86 N6        30.06S
STERLING*      CLOUDY    46  45  93 NE5       30.07R
$$

ILZ003-004-008-010-011-017-018-021000-
NORTH CENTRAL ILLINOIS

CITY           SKY/WX    TMP DP  RH WIND       PRES   REMARKS
ROCKFORD       CLOUDY    47  43  86 N3        30.09R
FREEPORT*      CLOUDY    46  44  95 N3        30.10R
ROCHELLE*      CLOUDY    46  43  90 NE8       30.06R
DE KALB*       CLOUDY    45  42  89 N9        30.04S
$$

ILZ005-006-012>014-019>023-021000-
NORTHEAST ILLINOIS

CITY           SKY/WX    TMP DP  RH WIND       PRES   REMARKS
CHICAGO-OHARE  CLOUDY    45  40  82 NE12      30.02R
CHICAGO-MIDWAY CLOUDY    44  39  82 N12G22    30.01S
AURORA         CLOUDY    45  42  89 N6        30.04R
LANSING*       CLOUDY    44  42  91 N8        30.01R
WAUKEGAN       CLOUDY    44  40  85 N6        30.04S
DUPAGE AIRPORT CLOUDY    45  39  79 N13       30.01F
WHEELING       CLOUDY    45  38  76 NE12      30.04S
MORRIS*        CLOUDY    46  42  89 N7        30.02S
NORTHERLY ISL    N/A     44  40  85 N14         N/A
NORTHERLY ISL    N/A     44  40  85 N14         N/A
$$

LMZ740>746-021000-
SOUTHERN LAKE MICHIGAN

STATION/POSITION SKY/WX   TEMP    WIND        PRES    VSBY  WAVE
                          AIR SEA DIR/SP/G                  HT/PER
                          (F)     (DEG/KT/KT) (MB)    (MI)  (FT/S)
SOUTHERN BUOY              42 40   20/  8/ 10 1017.3          2/ 4
HARRISON CRIB              44     360/ 16/ 17   N/A
BURNHAM HARBOR             44     350/ 10/ 18   N/A
CALUMET HARBOR             44     360/ 10/ 17 1015.7R
BURNS HARBOR               45      30/ 19/ 22 1015.9S
MICHIGAN CITY              45     360/ 17/ 19   N/A
ST. JOSEPH                 46 47                N/A           3/ 4
$$

ILZ025>027-034>036-040-047-049-050-058-095>099-021000-
WEST-CENTRAL ILLINOIS

CITY           SKY/WX    TMP DP  RH WIND       PRES   REMARKS
QUINCY         CLOUDY    49  48  97 NW8       30.07R
MACOMB*        CLOUDY    49  47  96 N5        30.08R
PITTSFIELD*    CLOUDY    50  48  93 NW8       30.06F
$$

ILZ028>032-037-038-041>044-048-051>054-059>061-021000-
CENTRAL ILLINOIS

CITY           SKY/WX    TMP DP  RH WIND       PRES   REMARKS
BLOOMINGTON    CLOUDY    48  48 100 N12       30.02S FOG
DECATUR        CLOUDY    51  46  83 NW16      30.01S
PEORIA         CLOUDY    48  45  89 NW5       30.03F
LINCOLN*       CLOUDY    49  48  93 N3        30.02S
SPRINGFIELD    CLOUDY    51  48  89 N7        30.02S
TAYLORVILLE    NOT AVBL
$$

ILZ033-039-045-046-055>057-062-063-021000-
EAST-CENTRAL ILLINOIS

CITY           SKY/WX    TMP DP  RH WIND       PRES   REMARKS
CHAMPAIGN      CLOUDY    49  46  90 NW13      29.99S
MATTOON        CLOUDY    52  47  83 NW10      29.98F
$$

ILZ079-100>102-021000-
SOUTHWEST ILLINOIS

CITY           SKY/WX    TMP DP  RH WIND       PRES   REMARKS
ALTON          CLOUDY    51  47  84 NW8       30.05R
BELLEVILLE     CLOUDY    53  52  94 NW8       30.04R
CAHOKIA*       CLOUDY    54  47  77 NW9       30.06R
SPARTA*        CLOUDY    53  49  87 NW7       30.06R
$$

ILZ064>066-069>071-074>076-080>082-084>086-088>090-092>094-021000-
SOUTH-CENTRAL ILLINOIS

CITY           SKY/WX    TMP DP  RH WIND       PRES   REMARKS
CARBONDALE     CLEAR     54  50  86 NW6       30.03R
CAIRO*         CLEAR     56  51  82 N5        30.02S
EFFINGHAM*     CLOUDY    54  53  97 W12       30.02R
MT. VERNON     CLOUDY    54  46  76 CALM      30.03S
SALEM*         CLOUDY    54  49  86 W5        30.03R
$$

ILZ067-068-072-073-078-083-087-091-021000-
SOUTHEAST ILLINOIS

CITY           SKY/WX    TMP DP  RH WIND       PRES   REMARKS
LAWRENCEVILLE  MOCLDY    54  51  90 N7        29.99S
FLORA*         PTCLDY    55  52  89 W8        30.02R
HARRISBURG*    PTCLDY    55  52  90 NW5       30.02R
ROBINSON*      PTCLDY    51  49  93 N3        30.00R
CARMI*         CLOUDY    55  52  92 NW8       30.00S
$$

ABBREVIATIONS USED IN REMARKS
   TC - TEMPERATURE IN CELSIUS
  WCI - WIND CHILL INDEX
   HX - HEAT INDEX
  VSB - VISIBILITY
$$





USA.gov is the U.S. government's official web portal to all federal, state and local government web resources and services.